Lid_Strength_Index
1 0 1 0 0 -0 0 0 -0 -0 -0 -0 -0 -0 -0 -0 -1 -0 -0 -0 0 0 2 2 2 1 3 3 3 2 1 0 2 1 2 3 3 3 2 1 2 2 1
1 1 1 0 0 0 0 0 -0 -0 -0 -0 -0 -0 -0 -0 -0 0 0 -0 0 1 2 3 2 2 2 2 3 2 2 1 1 2 3 4 3 2 2 2 3 2 2
1 1 1 1 1 1 0 0 -0 -0 -0 -0 -0 0 0 0 -0 -0 -0 -0 0 1 2 2 2 1 2 2 2 3 4 4 3 3 4 3 3 2 3 2 2 2 3
1 1 1 1 1 1 0 0 0 -0 -0 -0 0 -0 -0 -0 -0 -0 -0 -0 0 2 2 2 2 1 1 2 2 4 3 3 3 3 4 4 3 3 3 4 3 1 2
1 1 1 1 0 0 0 0 0 0 0 -0 0 -0 -0 -0 0 0 0 0 1 2 2 2 1 1 1 1 1 1 1 2 3 3 3 3 3 3 2 1 2 1 -0
1 2 1 1 1 1 1 1 0 1 0 0 0 0 0 0 3 2 -0 1 2 2 2 2 1 1 1 1 2 2 1 1 1 3 2 3 2 2 1 1 1 2 2
1 1 1 1 1 1 1 1 1 1 0 1 1 0 1 1 3 2 1 1 2 2 2 2 2 1 0 1 2 3 3 3 1 0 2 2 2 1 -0 0 -0 1 1
1 1 1 1 1 1 1 1 1 1 1 1 1 1 2 2 3 3 1 0 1 2 3 2 1 1 1 2 1 0 0 1 1 1 -0 -0 -0 -1 -1 -1 -0 -0 -0
2 2 1 1 1 1 2 1 1 1 1 1 2 3 2 2 4 3 1 0 1 2 3 2 1 1 3 3 -0 0 1 1 2 2 2 2 2 2 0 -1 1 1 2
2 1 1 1 1 1 1 1 1 1 1 2 3 3 3 2 4 3 1 1 2 3 4 3 3 2 4 3 -0 0 2 1 0 0 -0 3 2 1 2 -1 -0 1 2
1 1 1 1 1 1 1 1 1 2 3 4 4 2 1 2 1 4 4 1 2 2 3 3 2 4 5 4 3 1 2 0 1 0 1 2 1 -0 -0 -1 -1 -0 1
2 2 2 2 2 2 1 3 4 4 4 3 3 2 1 1 4 6 6 5 2 1 4 3 3 6 5 5 4 4 4 3 1 2 3 3 2 1 0 -0 -1 -2 -1
1 2 2 2 2 2 2 3 4 4 4 3 4 4 4 2 1 6 6 6 5 3 3 4 5 6 6 5 5 4 4 2 2 3 3 2 2 1 -1 -1 -1 -2 -2
2 2 2 2 2 2 2 3 4 4 4 4 4 3 3 3 1 2 4 5 6 5 5 4 3 2 3 2 3 4 3 2 2 2 2 1 -0 -0 -0 -1 0 -0 1
2 2 2 2 2 3 4 3 1 1 2 2 2 2 3 2 2 4 5 4 4 4 4 3 2 2 2 2 3 3 2 2 1 1 1 1 0 -0 -0 -1 -0 -0 1
2 2 2 3 2 2 2 3 11 10 10 10 9 4 1 7 9 10 11 11 11 10 3 2 2 2 2 2 3 3 2 1 0 1 1 1 2 2 1 -1 -0 1 1
2 2 2 2 2 2 2 2 3 5 11 12 11 10 9 8 12 13 13 13 11 7 1 1 1 2 2 2 2 2 2 1 0 1 1 2 2 2 1 0 0 1 1
1 7 2 1 2 1 1 1 1 2 2 2 9 9 11 12 14 14 14 10 6 4 1 3 3 3 2 3 3 2 2 2 1 1 1 2 2 2 1 1 1 2 3
1 1 1 1 1 2 1 1 1 1 1 2 3 8 11 14 15 14 13 4 2 3 4 3 3 4 3 2 2 2 2 2 2 1 1 2 1 1 1 1 1 3 2
1 4 3 1 1 1 2 2 2 2 2 2 2 2 6 7 5 7 6 4 3 4 4 4 4 4 2 2 2 2 2 3 2 1 1 1 0 1 1 -0 -0 0 -0
1 1 3 1 1 1 1 2 2 2 2 2 2 3 9 4 5 6 6 4 5 5 4 4 5 5 3 2 3 2 2 2 2 2 1 0 -1 -0 -1 -1 -1 -0 0
1 1 1 1 1 1 1 2 2 2 2 2 2 3 11 3 5 5 5 5 4 4 4 4 5 4 3 3 2 2 2 3 1 0 -0 -1 -1 -1 -1 -1 -0 0 0
1 1 1 1 1 3 2 1 2 2 2 1 1 1 5 3 4 5 4 4 3 4 4 4 4 4 3 2 2 2 2 1 0 -1 -1 -1 -1 -1 -1 -0 0 1 1
1 1 1 1 1 1 1 1 2 4 2 2 2 1 2 2 3 4 4 4 4 3 4 4 3 3 2 2 2 1 1 -0 -1 -1 -1 -1 -1 0 -0 1 2 2 3
1 1 1 1 1 1 1 1 1 1 2 2 2 2 3 3 3 4 4 3 4 5 4 4 3 3 2 2 1 2 8 10 1 6 -1 -0 -0 1 2 2 3 3 3
1 1 1 1 1 1 1 1 1 1 1 2 1 3 4 4 3 3 3 2 3 2 3 3 2 3 2 2 2 10 14 12 7 12 1 -0 1 2 2 3 3 3 3